Theta_e
344 333 325 325 323 320 317 318 319 324 334 339 341 342 341 338 334 330 328 329 329 325 324 327 335 342 344 344 343 344 344 344 345 345 345 345 344 343 343 343 343 343 344 343 343 343 342 339 333 331 329 329 330 330 327 324 325 328 331 330 324 325 331 332 331 330 332 333 332 333 334 334 335 336 334 333 334 335 336 336 335 333 333 333 332
344 332 324 323 321 319 317 317 319 323 332 340 341 341 340 335 333 330 330 329 326 325 331 338 342 344 343 344 344 344 344 344 345 345 345 345 344 343 343 343 343 343 344 343 342 342 339 334 332 333 333 333 333 331 328 324 323 326 328 326 322 321 324 326 326 327 328 327 326 330 334 334 335 335 333 333 333 334 333 333 333 333 332 333 333
343 332 325 323 321 318 317 317 319 321 329 338 339 340 339 336 335 333 331 327 326 331 339 343 343 344 343 344 344 344 344 344 344 345 345 344 344 344 344 344 344 343 343 342 342 341 337 333 333 335 334 333 333 331 328 323 320 323 323 321 319 316 320 326 329 331 330 330 329 330 332 333 335 335 333 331 332 332 330 329 332 332 331 332 333
344 335 326 327 325 318 317 318 319 322 325 332 334 336 337 336 336 333 329 327 332 338 342 343 343 344 343 344 344 344 344 344 344 344 344 344 344 344 344 344 344 344 343 342 341 340 338 336 336 336 334 333 332 331 329 324 319 319 317 314 314 316 325 332 332 333 334 335 335 333 331 330 333 334 332 329 328 328 328 330 333 333 332 331 330
343 332 327 332 330 321 317 319 320 322 323 327 329 330 333 335 333 330 326 330 337 340 343 343 343 343 343 344 344 344 343 344 344 344 344 344 343 344 344 343 344 343 343 342 341 341 340 339 338 336 333 333 332 332 330 325 320 316 312 314 319 322 330 333 333 334 334 336 337 336 333 330 330 331 332 331 330 328 328 331 333 333 333 332 329
341 334 336 337 334 325 318 319 321 321 322 324 324 324 327 329 329 328 325 332 339 342 343 342 343 343 344 344 343 344 343 344 343 343 343 343 343 343 344 344 343 343 342 342 341 340 340 339 338 336 334 333 332 332 331 327 320 313 312 323 329 329 331 333 333 334 335 336 338 337 334 332 331 332 334 333 333 333 332 331 332 333 332 333 330
341 340 342 340 334 327 318 320 321 322 324 325 324 323 324 325 327 327 328 335 340 342 342 342 343 343 344 344 344 344 343 344 343 343 343 343 343 343 344 343 343 343 342 341 341 340 339 336 334 335 335 334 332 332 331 326 317 312 318 330 333 332 333 333 334 334 335 336 338 337 334 334 332 333 335 334 335 335 335 332 331 332 333 333 331
342 343 343 338 331 325 319 320 321 322 324 327 327 326 326 327 327 329 334 339 340 341 342 342 343 343 344 343 343 343 344 343 343 343 343 343 343 343 343 343 343 342 342 341 341 340 336 331 331 334 336 335 333 331 331 326 318 318 326 332 333 333 333 334 335 335 336 336 337 336 334 334 332 333 335 335 335 336 336 334 331 331 332 331 329
343 343 342 334 328 325 322 321 322 325 328 331 332 332 332 332 332 335 338 340 341 341 342 343 343 343 344 343 344 343 343 343 343 343 343 343 342 343 342 342 341 340 339 337 336 335 332 327 328 332 334 334 333 331 330 326 322 327 331 333 333 333 334 335 336 337 337 336 337 336 333 334 333 332 334 335 335 335 336 334 332 329 329 329 328
344 342 339 334 332 329 325 325 330 335 337 338 340 339 339 338 338 339 340 341 341 342 343 343 343 343 343 343 343 343 343 343 343 342 342 342 342 342 342 342 341 340 338 333 330 330 330 327 328 331 332 332 332 331 331 327 324 330 333 332 334 334 335 336 337 337 337 336 336 335 333 333 333 330 330 334 335 334 334 333 332 327 328 330 330
343 342 340 339 336 331 329 331 337 340 341 342 343 343 343 341 340 341 341 342 342 343 343 343 343 343 343 343 343 342 342 342 341 341 341 341 341 341 341 341 340 340 337 332 330 327 326 326 328 331 332 331 331 331 330 328 324 327 331 333 334 334 336 336 336 335 334 334 333 333 333 333 330 325 324 329 332 332 331 331 330 327 329 331 330
344 342 339 341 339 335 335 337 340 340 341 343 343 344 344 342 342 342 342 342 342 343 343 344 343 343 343 342 342 341 341 341 341 340 339 338 338 337 337 336 335 336 334 332 330 326 323 325 329 331 331 330 330 330 329 329 326 326 330 332 334 334 336 336 336 335 333 332 332 334 334 333 327 321 322 326 330 329 328 329 329 328 329 330 329
345 340 333 338 340 338 339 339 340 340 341 343 343 344 343 343 343 342 342 342 343 343 343 343 343 342 342 341 340 340 340 339 338 337 336 336 335 334 332 330 329 330 330 329 327 324 322 326 330 331 330 330 330 330 330 329 327 329 331 332 333 334 335 335 336 334 331 331 334 336 334 332 326 319 321 328 331 330 329 329 328 328 329 329 329
344 339 335 339 340 339 340 339 339 339 341 342 343 344 343 344 343 343 343 343 343 343 343 342 342 341 340 339 337 335 334 332 330 329 329 330 329 328 326 323 323 324 325 326 325 322 322 326 331 332 330 330 330 330 331 330 327 328 332 332 333 334 334 335 336 334 333 333 333 335 334 329 324 319 321 329 331 330 330 329 328 329 328 328 328
343 341 340 341 340 339 340 339 338 339 340 340 341 342 343 344 343 343 342 342 342 342 342 341 341 339 337 335 333 331 329 327 324 323 323 323 323 324 324 322 320 319 321 323 324 321 321 327 330 332 332 331 331 331 331 330 327 326 330 332 332 334 335 336 336 333 331 331 332 335 335 330 324 319 320 327 329 330 330 329 328 330 329 326 326
343 342 342 341 340 340 339 338 338 339 339 339 341 342 343 343 342 343 342 342 342 341 341 340 339 338 337 335 334 333 331 330 328 326 324 323 324 325 326 324 319 316 318 319 322 321 320 326 330 331 332 332 331 331 331 331 328 326 328 331 333 335 336 336 335 332 331 330 332 336 336 331 327 322 320 324 327 330 332 329 329 329 330 327 324
344 342 342 342 341 341 340 339 338 337 338 339 341 342 343 343 342 342 342 342 341 341 340 339 339 338 337 337 336 336 335 335 333 331 328 325 324 325 326 325 321 315 315 317 319 319 319 324 329 330 332 332 332 332 331 331 329 326 328 333 334 335 335 335 334 332 331 331 333 335 335 333 331 325 321 323 325 329 330 330 329 328 329 328 325
344 343 343 342 342 341 341 339 338 338 339 340 341 342 342 343 342 342 342 341 341 340 339 339 339 338 337 336 336 336 335 335 334 334 332 328 325 324 325 326 324 318 313 314 316 318 318 323 327 329 331 332 332 332 331 331 329 327 329 332 333 334 335 335 335 332 326 329 335 336 335 334 332 324 318 321 325 328 328 329 330 329 329 328 327
344 344 344 343 343 341 341 340 340 339 339 341 341 342 342 342 342 342 341 341 340 339 339 338 338 337 336 335 334 334 335 335 334 332 332 331 328 325 325 326 326 321 313 311 314 316 316 320 326 328 330 332 332 332 331 330 328 329 332 334 334 335 336 335 336 334 329 331 336 336 334 331 326 320 317 319 324 328 328 327 329 329 328 328 328
345 345 344 344 343 341 342 341 340 339 339 340 341 342 342 342 342 342 342 340 340 339 338 337 337 337 336 336 336 337 337 338 338 335 332 332 331 327 325 326 327 324 317 312 311 313 315 317 323 327 329 331 332 332 331 330 328 328 330 332 333 335 336 335 335 333 332 333 332 334 333 327 324 320 318 320 324 327 328 327 327 328 328 329 328
345 345 344 344 344 343 343 342 341 340 339 338 339 340 341 342 341 342 341 340 339 338 338 336 337 337 336 338 338 339 339 338 339 338 336 335 334 330 326 325 326 326 323 322 317 311 311 315 320 325 327 331 332 332 331 330 329 328 327 328 330 333 334 334 334 332 331 330 328 331 332 327 326 324 321 321 323 324 326 326 326 327 329 329 328
346 345 345 345 344 344 344 342 342 341 339 338 338 338 339 341 341 341 340 338 338 337 337 337 338 337 336 338 338 338 339 338 337 338 340 338 334 330 328 325 326 326 325 330 330 320 312 311 317 323 325 329 330 333 334 332 330 329 328 329 331 335 337 336 334 333 332 331 331 333 333 330 327 326 323 322 324 325 328 328 327 327 328 329 329
346 345 345 345 344 344 344 343 342 341 340 338 336 336 338 340 341 341 340 339 339 338 340 341 340 339 338 339 337 336 337 337 336 338 340 336 331 329 328 327 329 329 327 331 335 332 321 311 313 320 324 327 330 337 340 337 334 332 329 329 331 336 340 338 334 332 332 332 333 334 333 331 328 327 326 325 326 327 330 331 329 328 328 329 328
346 346 345 344 344 344 344 343 342 341 339 337 335 335 337 339 340 341 341 341 340 340 341 341 340 339 339 338 337 337 336 336 334 335 337 336 335 334 333 333 334 333 330 332 336 337 332 322 314 315 320 324 330 338 341 339 339 338 335 333 334 338 339 337 335 333 333 332 332 333 333 330 328 328 328 328 329 328 330 331 330 329 328 330 329
346 346 345 344 344 343 343 342 341 341 338 337 337 337 337 337 338 339 340 340 340 340 340 339 338 338 338 338 339 339 338 338 337 337 338 338 339 339 338 337 338 338 335 333 336 337 337 333 324 318 319 325 332 336 338 338 339 340 339 338 338 338 338 336 335 334 334 332 332 333 333 332 330 329 328 329 330 330 331 331 331 330 329 330 330
346 346 345 344 343 342 342 341 340 340 337 337 337 336 335 336 337 337 338 338 338 338 338 338 338 338 339 340 340 340 340 340 339 339 339 339 339 339 339 338 338 339 337 334 337 338 338 337 332 327 326 330 333 334 335 335 336 338 337 338 337 336 336 335 334 333 333 333 334 335 335 335 332 329 329 329 328 330 331 331 332 331 330 330 329
345 345 344 343 342 342 341 340 339 337 336 336 336 335 336 337 337 337 337 336 337 337 337 338 338 339 339 340 340 341 340 339 340 340 339 339 339 339 339 339 339 338 336 336 336 336 336 336 333 331 331 330 331 332 333 332 333 333 333 333 335 335 334 334 334 332 333 333 334 335 335 335 334 332 331 330 329 329 330 331 332 331 331 330 329
344 344 343 342 341 340 339 338 337 336 336 335 334 335 336 337 337 337 336 337 337 337 338 339 339 340 339 339 341 340 339 339 339 340 338 339 339 339 339 339 339 338 337 336 336 335 335 336 334 333 333 331 331 331 332 333 333 333 333 333 332 333 333 333 334 333 333 333 333 334 335 336 336 334 333 332 331 330 329 330 332 332 331 330 330
344 343 342 341 339 338 337 336 336 336 336 335 335 336 337 337 337 337 337 337 337 338 340 340 340 341 340 340 341 340 340 339 339 340 339 339 340 340 338 339 339 338 337 338 338 338 337 337 336 335 334 334 333 333 333 333 333 333 334 335 334 334 333 333 334 334 334 333 333 333 335 337 336 335 335 334 334 332 330 329 331 333 332 331 331
342 341 340 339 338 337 337 336 336 337 336 336 336 337 337 337 338 338 338 338 340 341 340 340 340 341 341 340 341 341 341 340 340 341 339 338 340 339 338 338 339 338 338 339 339 339 339 339 338 337 336 336 335 334 334 334 333 334 334 334 334 334 334 334 334 335 335 334 334 333 334 336 336 336 336 335 335 334 332 330 330 332 333 332 332
340 339 339 338 337 336 336 336 337 337 337 337 337 338 338 339 339 339 339 340 341 341 340 340 340 340 341 341 341 340 342 342 341 341 339 337 338 338 339 339 338 339 339 339 339 340 339 339 339 338 338 337 337 336 335 334 334 334 333 334 333 333 333 333 334 334 334 335 334 333 333 334 336 336 336 336 335 334 334 332 330 330 333 334 332
338 338 338 337 337 337 336 337 338 338 338 339 339 340 340 341 340 340 340 341 342 341 341 340 341 341 341 340 341 341 342 342 340 341 340 339 338 338 339 339 338 339 338 338 339 339 338 339 338 338 338 338 338 338 337 337 336 336 335 334 334 334 334 334 334 334 334 334 334 334 334 334 335 335 336 336 335 335 335 333 331 330 331 333 333
338 337 336 336 337 337 337 338 338 339 339 340 340 340 341 342 341 341 342 341 342 342 341 341 341 342 341 340 342 341 341 341 340 340 341 340 339 339 337 337 339 338 338 339 339 338 338 339 338 338 339 338 338 338 338 338 337 337 337 336 336 336 335 335 335 335 336 336 336 336 336 335 334 334 335 336 335 335 336 335 334 332 331 332 334
338 337 336 337 338 338 339 339 338 338 338 338 338 338 339 340 340 341 342 341 341 341 341 341 341 341 341 341 341 341 341 341 340 339 340 341 340 339 339 337 339 338 338 339 338 338 339 339 338 339 339 339 338 339 338 338 338 338 338 337 337 338 337 337 337 337 338 338 338 338 337 336 336 334 333 334 335 335 335 335 335 334 333 331 332
338 337 337 339 339 339 339 338 338 338 337 336 337 337 336 337 337 339 341 341 340 340 341 341 341 341 341 341 340 340 341 340 340 340 339 340 340 339 340 339 339 339 338 339 338 338 339 339 339 339 338 339 339 339 338 338 338 338 338 338 338 338 339 339 338 338 338 339 339 338 337 337 336 336 334 334 335 335 335 335 335 335 334 333 331
339 340 340 341 339 339 339 339 339 339 338 338 338 337 336 335 335 337 339 341 340 340 340 341 341 341 341 340 340 340 341 341 341 341 340 340 340 339 339 339 338 339 338 337 338 338 338 338 339 338 337 339 339 339 339 339 339 338 338 338 338 338 338 338 338 338 339 339 338 338 337 338 337 336 336 336 335 335 335 335 335 335 334 334 332
340 340 341 340 339 339 339 339 339 340 339 338 338 337 337 337 337 336 337 338 338 338 339 340 341 341 341 341 341 341 341 341 340 340 340 339 339 338 338 338 338 339 338 337 337 337 337 337 337 338 337 338 338 339 338 337 338 338 337 337 337 337 337 337 337 338 338 338 338 338 337 337 336 337 337 336 335 335 335 335 335 335 334 334 334
339 339 339 340 339 338 339 339 339 340 338 337 337 336 337 337 337 337 336 337 336 336 338 340 341 340 340 340 340 340 340 341 340 339 339 338 338 339 338 338 338 338 338 337 337 337 336 336 336 337 336 336 337 337 336 336 336 336 336 336 336 336 336 336 336 337 337 338 338 338 337 336 336 337 337 336 336 335 335 335 335 335 335 334 334
338 338 339 339 340 339 339 339 339 338 338 337 336 336 337 337 337 337 335 336 336 336 338 340 340 339 339 338 338 338 338 339 339 338 338 338 338 338 337 337 337 337 336 336 336 335 335 335 335 335 334 335 336 335 335 334 334 334 335 335 335 335 335 335 335 336 336 337 338 337 337 337 336 337 337 337 336 336 336 335 335 335 334 335 334
338 338 338 339 339 339 338 338 338 337 337 337 336 336 337 337 338 337 334 335 335 336 338 339 338 338 337 337 337 337 337 337 337 337 336 337 337 336 336 335 335 335 335 335 335 334 334 334 334 334 334 334 334 334 334 333 333 334 334 334 335 334 334 334 334 334 336 337 338 337 338 337 337 336 336 337 336 336 336 336 335 335 334 334 334
337 337 338 338 338 338 338 338 337 336 336 337 336 335 336 336 335 336 334 333 335 337 338 337 337 337 336 336 336 336 335 335 335 335 335 335 335 335 334 333 333 333 333 333 332 332 332 332 332 332 332 332 333 333 332 332 334 334 334 334 335 334 333 333 334 335 336 336 336 336 337 337 337 337 336 337 336 336 336 336 335 335 335 334 334
337 337 338 338 338 338 338 337 337 336 335 336 336 334 335 334 334 335 334 333 335 336 337 337 336 335 335 334 334 334 333 332 332 332 332 331 332 332 331 330 329 329 330 330 329 329 329 330 329 328 329 329 330 330 329 330 333 333 333 334 334 334 333 334 335 335 335 335 335 335 336 336 337 337 336 336 336 336 336 335 334 334 334 334 333
336 337 337 337 338 338 337 337 336 336 335 336 335 335 335 334 335 335 335 335 335 336 336 335 335 334 333 333 332 331 331 330 329 329 328 327 328 329 329 328 327 326 327 327 326 326 327 327 327 326 326 326 327 327 327 329 330 330 331 333 334 335 335 334 333 331 331 333 334 334 334 334 335 335 334 334 335 335 335 335 334 334 333 334 334
336 337 337 337 337 337 337 336 336 336 336 336 336 336 336 335 336 336 335 335 335 335 334 333 333 331 330 330 329 329 328 327 326 326 327 326 326 327 327 326 326 324 324 325 324 324 325 325 325 324 325 325 326 326 327 327 327 328 330 331 332 334 335 333 330 328 329 330 330 330 331 332 332 332 332 333 333 334 334 334 333 333 334 334 334
337 338 337 337 337 336 336 335 336 337 336 336 335 335 335 335 335 335 334 334 335 335 333 332 331 330 328 327 327 326 325 325 324 324 325 325 325 324 325 324 324 323 323 323 323 322 323 324 323 324 324 324 324 324 325 325 324 326 327 328 330 331 330 328 327 328 328 328 328 328 329 329 330 329 329 330 331 332 332 332 332 332 334 335 335
337 337 337 336 336 335 335 335 336 337 336 335 334 334 335 334 334 334 333 334 335 334 333 331 329 328 328 326 324 324 323 323 322 322 322 323 323 323 323 323 322 322 321 322 321 321 322 322 322 322 322 322 323 323 323 322 322 323 322 323 325 326 326 326 327 327 326 325 326 326 326 326 326 325 325 327 328 329 329 330 331 332 333 335 335
336 336 336 335 335 334 335 336 336 336 335 334 334 334 334 334 334 333 332 333 334 332 331 330 329 327 326 325 323 322 321 321 320 320 320 320 320 320 320 320 320 319 319 319 319 319 320 320 320 320 320 320 320 321 321 319 319 319 318 319 320 321 322 323 325 325 324 324 323 323 323 323 322 322 323 324 325 325 326 326 327 329 332 333 334
336 335 334 333 333 334 334 335 335 334 334 333 333 334 333 333 333 333 332 333 332 330 329 328 327 326 325 324 322 320 319 319 318 318 318 318 318 317 317 318 318 317 317 317 317 318 319 318 318 318 317 318 318 318 318 316 316 317 316 316 317 318 318 319 321 321 321 321 321 321 321 320 319 320 321 322 322 322 322 321 322 324 327 330 332
335 334 334 333 333 333 333 333 333 332 332 332 332 333 333 333 332 332 331 330 329 329 328 327 325 324 323 322 320 319 318 317 317 317 316 316 316 316 315 315 316 316 316 315 316 317 317 316 317 317 316 316 316 316 315 314 315 315 314 315 316 316 316 317 317 316 317 317 318 318 317 317 317 318 318 319 319 319 320 321 321 321 324 328 331
334 334 333 333 332 332 332 331 331 331 331 331 332 332 332 332 331 330 329 328 328 328 327 325 324 323 322 320 319 318 317 316 316 316 315 315 315 315 314 314 314 314 315 314 315 316 315 314 315 316 315 314 315 314 314 313 313 313 313 314 314 314 315 315 314 314 314 315 315 315 315 315 315 315 316 316 317 317 319 320 321 322 325 327 326
332 333 332 331 331 331 330 330 330 330 330 329 329 329 329 330 329 329 328 328 327 327 326 325 324 322 321 319 317 317 317 316 315 314 314 313 313 313 313 312 312 313 313 313 314 315 313 312 314 314 314 314 314 314 313 312 312 312 312 312 313 313 314 313 313 313 313 313 313 313 313 313 313 314 314 314 315 316 317 318 319 319 321 323 323
Wind_Speed
19 20 20 17 16 16 16 16 16 16 17 18 18 17 16 15 15 15 14 13 13 14 14 14 14 13 13 13 13 13 13 13 13 13 13 13 13 13 13 14 13 13 13 13 14 13 12 11 11 12 12 12 12 12 11 9 8 7 8 8 9 10 10 10 10 11 12 12 12 15 16 16 14 12 12 13 13 15 16 16 14 15 16 15 14
20 21 20 18 17 16 16 17 16 16 17 18 18 17 17 16 15 15 13 14 15 15 15 14 14 13 13 13 13 13 13 13 12 12 12 12 13 13 13 13 13 13 13 13 13 12 12 11 12 12 12 12 12 12 11 10 7 6 6 7 8 10 9 9 11 12 12 12 12 16 17 16 15 13 11 11 11 13 14 14 13 13 13 13 13
22 21 20 19 17 17 17 17 17 17 17 18 18 18 17 16 15 14 15 16 16 15 15 14 13 13 13 13 13 13 12 12 12 12 12 12 12 12 13 13 13 13 12 13 12 12 11 11 11 11 11 11 12 12 11 10 8 6 6 6 8 9 12 13 14 14 15 16 16 17 16 15 15 13 11 9 9 9 9 11 13 12 11 10 12
22 21 21 18 17 17 17 17 18 18 18 18 18 18 17 17 15 16 17 17 15 14 15 13 13 13 13 13 13 12 12 12 12 12 12 12 12 13 13 13 13 12 12 12 12 11 11 10 10 10 10 11 11 11 12 11 9 7 7 9 9 11 15 16 14 13 14 17 18 16 13 14 14 13 11 10 9 8 8 11 12 12 11 10 10
23 21 21 18 17 18 18 18 18 18 18 18 18 17 17 17 16 18 19 17 15 14 14 13 13 13 13 13 12 12 12 12 11 12 12 12 13 13 13 12 12 11 11 11 11 11 10 9 9 9 10 10 11 11 12 12 10 8 11 14 14 14 16 14 13 11 11 12 13 13 11 12 11 12 12 13 12 11 11 11 11 10 11 11 10
23 21 19 18 17 18 18 18 18 19 19 19 19 19 18 18 18 19 19 16 15 14 13 13 13 13 13 12 12 12 12 12 12 12 12 12 13 13 12 12 11 11 11 11 10 10 9 9 8 8 9 9 10 11 11 12 11 10 15 17 16 15 14 13 11 9 8 7 8 10 9 9 11 13 12 13 13 12 12 11 11 11 10 10 11
21 20 17 18 18 18 19 19 19 19 20 20 20 20 20 19 19 19 18 16 14 13 12 13 13 13 13 12 12 12 12 12 12 12 12 12 12 13 12 11 11 11 10 10 9 9 8 8 8 8 8 8 9 10 11 12 12 13 17 17 15 14 13 12 10 8 7 4 6 8 7 7 9 11 11 11 11 11 11 11 9 9 10 10 11
20 18 16 18 19 20 20 20 20 20 21 21 21 20 20 20 19 19 18 16 14 13 12 13 13 13 13 12 12 12 12 12 12 12 12 12 12 12 11 10 10 10 10 9 9 8 7 7 8 7 7 7 8 9 10 12 13 16 17 16 14 13 12 10 9 7 7 7 6 7 7 6 7 9 10 9 10 10 10 11 9 7 8 9 9
20 17 17 19 20 21 21 21 21 21 21 22 21 21 20 20 19 19 17 15 14 13 13 13 13 13 13 13 12 12 12 12 12 11 12 12 12 11 10 9 9 9 9 8 8 7 7 7 8 7 7 6 7 8 9 11 13 15 16 14 12 11 9 8 7 7 8 8 7 8 8 7 7 8 8 7 9 9 9 8 8 7 6 7 9
22 19 18 20 21 21 22 22 21 20 20 21 21 20 19 19 19 18 16 14 13 13 13 13 13 13 13 13 13 13 12 12 11 11 11 11 11 10 9 9 8 8 7 7 6 6 6 6 8 8 7 6 6 6 7 9 11 13 12 11 10 9 9 7 7 9 9 7 8 10 9 7 6 6 6 6 7 7 6 5 6 8 9 10 10
23 20 18 19 20 22 22 22 21 20 20 21 20 19 19 18 17 16 15 14 14 14 14 14 13 13 13 13 13 13 12 12 11 11 10 10 10 9 8 8 7 6 6 6 5 5 5 6 7 8 7 7 7 6 6 8 9 11 10 9 9 8 8 7 8 9 8 7 7 8 6 3 3 4 5 5 5 3 3 4 6 7 10 10 9
22 21 20 18 19 22 22 21 21 20 20 20 20 19 18 18 17 16 15 14 14 14 14 14 13 13 13 13 13 12 12 11 11 10 9 8 8 8 7 6 5 4 4 4 4 5 5 6 7 8 8 8 8 7 8 7 8 9 9 8 7 6 6 6 7 6 5 7 7 8 6 3 2 5 4 5 4 4 4 5 5 6 9 8 8
22 22 22 19 17 20 21 21 21 20 20 19 19 19 18 17 16 16 16 15 14 14 14 14 13 13 13 12 12 11 11 10 9 9 8 7 6 6 6 5 4 3 3 3 3 4 6 6 7 8 8 8 9 8 9 8 7 8 8 7 5 4 3 4 6 5 4 5 7 5 3 2 3 5 4 6 5 5 6 5 5 6 7 7 7
22 22 22 19 18 20 21 21 20 20 19 19 19 19 18 17 15 16 15 15 14 14 14 13 13 12 12 12 11 10 9 9 8 8 7 7 6 6 5 5 4 3 2 2 3 4 5 6 7 8 8 8 8 8 9 8 7 8 8 7 5 3 2 5 6 4 3 4 5 4 5 2 4 5 2 4 3 4 5 4 5 6 5 6 6
23 23 21 19 19 19 20 21 20 19 19 19 20 19 18 16 15 15 15 15 14 14 14 13 13 12 11 11 10 10 9 9 8 8 7 7 7 6 6 5 5 3 2 2 2 3 5 6 6 7 7 7 7 7 8 8 7 8 8 7 5 4 3 5 6 4 3 3 3 4 5 2 5 7 3 2 2 3 4 3 5 5 4 4 5
25 24 21 21 21 20 19 20 20 20 20 20 20 19 17 16 16 15 15 14 14 14 13 13 12 11 10 10 9 9 8 8 7 7 6 6 6 6 6 6 5 4 2 1 2 3 4 5 5 6 6 6 6 6 7 8 7 7 8 7 5 4 4 5 6 5 1 2 2 5 5 3 4 7 5 1 2 3 2 2 3 4 2 3 4
24 24 23 22 22 21 19 18 20 20 20 19 18 18 16 16 16 15 14 14 14 14 13 12 11 10 9 8 8 7 6 6 6 6 5 4 4 4 5 6 6 5 3 2 2 3 4 5 5 5 5 5 5 5 6 6 6 7 7 7 5 5 5 4 5 6 1 2 2 5 4 4 6 9 7 3 2 3 2 1 0 1 1 2 4
24 23 23 23 22 21 20 19 19 19 19 19 17 16 16 16 15 15 14 13 14 13 12 11 10 9 8 7 6 6 5 5 5 5 4 3 3 3 4 5 6 6 4 2 2 3 4 5 5 4 4 4 4 4 4 5 6 8 8 8 6 5 4 3 4 3 2 2 2 4 5 6 9 11 8 5 2 3 2 1 1 1 0 1 3
24 24 23 23 21 21 21 20 19 18 17 17 16 16 15 16 15 14 14 13 13 12 11 9 9 8 7 7 6 7 6 5 5 5 4 3 3 3 4 5 7 8 6 3 2 3 4 5 5 4 3 3 3 3 3 4 6 9 9 8 5 4 4 4 4 1 2 3 3 4 5 8 11 10 8 5 2 2 3 2 2 3 2 1 2
24 24 23 22 21 21 21 20 20 19 17 16 15 16 15 15 14 13 13 13 12 10 9 9 8 8 7 7 7 7 8 7 6 5 5 4 4 4 5 5 7 9 8 7 3 1 3 4 5 4 3 2 2 2 3 3 5 7 6 5 3 3 5 5 7 5 2 4 7 6 6 7 10 8 7 4 1 3 4 4 4 3 2 1 3
22 22 21 21 21 21 20 20 20 18 18 17 15 15 15 15 14 13 13 12 11 10 9 9 9 8 7 7 7 6 5 7 5 3 3 4 6 3 4 4 5 8 8 10 9 4 1 4 5 4 3 2 1 2 2 3 3 4 4 2 1 2 4 6 7 6 3 5 8 8 7 8 9 7 6 4 2 4 5 5 4 2 3 2 3
20 20 21 22 22 20 20 21 21 19 18 18 15 15 15 14 13 13 12 11 11 10 9 9 8 7 7 6 7 4 2 5 5 2 2 3 6 4 3 4 5 6 6 8 10 8 3 3 5 5 4 2 2 2 2 3 3 3 3 3 2 2 4 5 6 8 7 6 8 7 7 8 10 8 6 5 3 4 5 5 4 4 4 3 4
20 20 21 22 22 21 21 22 22 20 18 17 16 17 16 13 12 12 12 11 10 9 8 9 7 5 5 4 5 4 3 4 2 2 1 2 5 4 3 3 4 5 5 5 7 8 6 1 3 5 5 4 3 2 3 5 5 4 4 5 4 5 5 5 7 7 7 6 6 7 7 8 10 8 7 6 5 4 4 6 7 7 5 4 5
21 21 22 22 22 21 21 22 22 20 17 16 17 18 17 14 12 11 11 10 9 8 8 8 7 5 4 4 6 6 4 5 5 4 2 2 2 3 3 2 3 5 4 5 5 5 6 3 0 3 5 5 4 3 5 9 9 7 7 7 7 7 6 7 8 8 9 9 9 9 8 9 10 9 8 6 7 6 5 7 8 8 6 5 7
22 21 22 22 21 21 21 22 20 19 17 16 17 16 17 15 13 12 11 10 9 9 9 8 8 7 7 7 8 7 6 5 5 5 4 5 2 1 2 2 2 4 5 7 7 5 5 4 1 1 3 5 7 8 9 10 10 9 9 9 8 8 9 9 10 12 11 9 11 11 10 10 10 10 9 7 8 8 7 8 9 9 7 7 10
20 20 20 21 22 21 20 20 18 17 16 16 16 15 16 15 14 12 12 11 9 10 10 8 8 8 8 7 7 7 5 4 3 4 4 4 3 3 3 2 3 5 6 7 8 7 7 7 3 2 4 5 8 11 10 9 9 10 11 10 9 9 11 11 10 12 10 10 12 12 12 13 12 11 10 9 9 9 9 9 9 9 7 8 12
19 19 21 21 21 19 18 18 16 15 14 15 16 15 15 14 14 13 12 11 9 10 10 9 9 9 8 7 7 5 4 3 2 1 2 2 1 3 4 3 4 5 6 4 3 5 6 7 6 6 7 7 9 9 9 9 9 11 12 12 11 10 10 10 12 12 11 11 13 13 15 16 15 14 12 11 11 11 11 11 10 10 8 10 13
20 20 20 20 19 18 17 17 16 15 14 15 16 14 13 12 13 12 11 11 10 10 10 11 10 8 7 7 6 4 4 4 1 1 1 1 0 2 3 3 4 3 4 3 1 2 4 7 6 6 8 8 9 8 8 9 9 10 11 12 13 13 11 11 13 13 13 13 13 14 15 17 17 15 14 12 13 13 13 13 11 10 10 12 15
21 20 19 19 18 18 16 16 16 14 14 15 15 14 13 13 13 12 11 12 11 11 11 10 9 7 7 6 5 4 4 4 2 1 1 2 1 1 3 3 3 2 2 2 2 3 4 6 5 6 8 8 8 8 7 9 10 10 11 14 14 14 13 13 12 12 13 14 14 14 14 15 16 16 16 14 14 14 15 15 12 12 12 13 15
19 20 19 18 17 17 15 15 15 13 14 14 12 13 14 13 13 11 12 12 10 10 11 10 7 6 6 6 5 4 2 3 3 2 2 2 2 1 1 2 2 2 2 2 2 4 5 5 5 7 9 8 9 8 8 10 10 10 12 13 13 13 13 13 14 14 13 14 13 13 13 13 13 15 17 17 16 14 15 17 15 14 13 12 16
19 20 18 17 15 15 15 15 14 13 14 13 12 14 14 13 12 11 12 12 11 10 10 10 8 6 5 5 5 4 1 2 2 2 2 2 3 1 1 0 1 1 2 2 1 2 4 5 6 7 9 9 9 9 9 11 11 10 12 12 12 13 13 12 13 13 13 13 14 15 16 14 14 15 17 19 18 15 16 18 18 16 14 14 16
18 18 17 16 15 13 13 13 12 12 12 11 13 14 13 13 13 12 12 12 12 11 10 9 9 7 6 4 5 4 1 1 2 2 2 3 3 2 1 1 2 0 1 1 2 3 3 3 6 8 9 9 9 10 10 11 12 12 13 13 13 14 13 12 12 13 14 15 16 16 17 18 18 17 16 18 19 20 19 17 18 18 18 17 16
16 17 17 15 13 12 11 10 10 9 9 9 11 12 13 15 14 11 11 12 12 10 8 9 9 8 6 5 5 3 2 2 2 3 3 2 3 3 3 4 4 1 1 0 2 4 4 4 6 8 9 9 10 11 11 12 12 13 13 14 15 16 17 16 15 16 16 15 15 16 17 19 20 18 16 16 19 22 21 18 20 20 19 19 19
17 18 18 15 13 11 9 7 5 2 2 3 3 6 9 11 11 9 10 11 11 10 9 8 8 7 6 6 5 4 4 3 3 4 3 3 3 3 2 4 4 2 1 2 2 2 4 5 6 7 9 9 10 11 12 12 12 12 13 13 14 15 16 16 17 16 16 16 15 15 18 20 21 21 19 20 20 20 20 19 21 21 20 20 21
17 17 16 14 13 11 9 7 6 3 1 2 4 3 3 2 2 5 9 10 9 10 10 9 8 7 6 5 5 4 4 4 4 5 4 4 3 3 4 5 4 4 4 4 3 3 4 5 6 8 9 9 10 11 12 13 13 13 14 15 15 16 16 17 18 18 17 17 16 17 18 20 21 21 19 20 20 20 20 19 20 20 20 20 22
15 15 16 14 14 13 11 10 10 7 4 3 5 4 1 1 2 1 5 9 9 9 10 10 9 7 7 6 6 6 5 5 5 5 4 4 4 4 4 5 5 5 6 5 4 5 6 6 7 9 10 10 11 12 13 13 14 15 15 16 16 16 17 18 18 18 17 17 18 18 17 17 19 20 18 18 19 21 22 21 21 20 19 20 23
14 16 16 14 15 13 10 10 9 6 4 4 5 4 3 3 3 1 1 3 3 7 9 10 10 8 7 7 6 6 6 6 6 5 4 4 6 6 6 7 8 7 8 8 8 9 9 9 10 10 11 12 12 13 14 14 14 15 15 16 16 17 18 18 18 17 17 17 17 15 16 16 17 17 18 18 19 21 22 22 23 22 20 21 23
17 17 15 14 13 12 10 11 10 7 6 6 6 6 5 4 5 5 1 3 3 4 8 10 11 9 8 9 8 9 9 9 8 8 7 7 8 8 8 9 10 9 10 10 10 11 12 12 12 12 12 13 13 14 15 16 16 17 17 18 18 18 18 18 17 16 15 15 15 14 16 16 15 16 18 18 18 19 19 20 21 22 22 22 23
19 18 16 14 12 12 12 11 10 9 8 7 8 7 5 5 7 7 4 1 2 4 10 13 13 11 11 11 11 12 12 12 12 11 11 10 9 10 10 11 11 11 12 11 12 13 13 14 14 14 15 14 14 14 16 17 18 18 19 20 19 19 19 18 17 16 14 14 14 14 15 15 14 15 15 16 17 17 17 17 17 19 21 22 23
19 18 17 14 12 12 11 10 10 10 9 8 9 8 7 9 11 10 5 1 1 7 12 14 13 13 13 13 13 13 13 14 13 13 13 13 13 12 12 13 13 13 14 14 15 15 15 16 16 16 17 16 15 15 16 18 19 19 19 19 19 18 19 19 17 14 13 13 13 13 14 13 13 13 13 14 16 16 16 15 16 17 19 21 22
17 17 17 14 12 12 10 9 9 10 10 9 9 8 8 9 12 10 3 2 2 10 14 14 14 14 14 14 14 14 14 14 14 13 13 14 15 15 15 15 15 15 15 15 16 15 15 18 17 17 17 18 17 16 19 21 19 18 19 21 19 17 18 16 12 9 10 13 13 13 13 12 12 13 13 13 15 16 16 16 16 17 18 19 20
15 16 16 13 11 13 11 9 10 11 10 9 9 9 8 9 10 9 5 1 4 10 13 14 14 14 14 14 14 14 13 14 13 11 10 12 14 15 16 16 15 15 14 14 16 15 16 18 18 18 17 17 17 18 22 21 17 17 17 16 15 16 16 8 4 7 12 16 15 13 12 12 13 13 12 13 14 16 17 17 17 17 18 18 19
16 16 15 13 12 13 12 11 12 12 11 11 11 11 10 10 10 11 9 5 6 10 12 13 13 13 14 13 12 12 12 13 13 12 12 13 13 14 15 15 15 15 14 15 16 16 16 17 17 18 18 17 17 18 20 18 17 18 15 8 7 11 9 7 15 22 20 18 17 15 13 12 12 13 13 14 15 15 17 19 20 20 20 19 19
17 17 18 17 15 14 14 14 14 13 13 14 14 13 13 12 11 11 9 5 6 9 10 12 12 13 14 13 12 12 12 13 14 13 14 14 13 14 14 14 15 15 15 16 16 16 16 16 16 17 16 16 16 17 17 17 18 16 10 5 5 6 4 7 20 25 21 19 20 20 19 17 15 15 15 16 15 16 17 19 21 22 22 21 20
20 20 20 19 19 18 17 17 15 15 16 17 16 15 16 15 13 11 7 6 6 7 9 11 11 11 13 13 12 12 12 13 14 14 14 14 13 13 12 13 14 14 15 14 14 14 14 14 15 15 14 14 14 15 15 16 17 15 12 7 5 4 4 9 15 16 18 21 20 19 20 19 19 20 20 19 17 17 17 17 18 20 21 21 21
21 21 21 20 21 21 20 20 18 16 17 16 14 14 14 13 14 12 6 6 7 7 9 11 11 11 11 10 10 11 12 12 13 13 13 13 12 12 11 11 11 13 13 11 12 13 13 13 14 14 14 13 14 14 14 16 15 16 17 13 9 8 8 12 9 8 15 19 16 18 19 19 23 25 24 22 21 22 20 18 18 18 19 19 21
19 21 22 21 22 24 23 22 19 16 15 13 11 12 12 10 11 9 6 6 9 10 10 11 10 11 10 9 8 9 11 11 12 12 12 12 11 11 11 11 11 12 12 11 13 13 13 13 13 14 14 14 15 15 15 17 15 15 18 17 15 15 15 14 8 6 11 13 16 20 18 20 24 25 23 23 24 25 26 26 23 21 19 19 20
18 19 21 21 23 24 24 22 20 17 16 14 12 12 12 10 10 10 8 9 10 10 10 10 9 10 10 10 9 9 10 11 11 12 11 11 11 12 12 11 11 12 12 12 13 13 13 13 14 14 15 14 16 15 15 17 16 16 18 18 17 17 18 17 15 13 9 8 14 18 20 24 25 21 21 23 25 26 28 30 28 25 25 25 25
16 18 21 22 23 23 22 21 20 18 18 17 16 14 11 10 10 11 12 10 9 9 10 9 9 9 9 10 10 10 11 11 11 11 11 11 11 12 12 12 12 12 12 12 12 13 13 14 14 15 16 15 15 15 15 16 15 16 17 18 17 17 17 17 19 19 12 8 9 10 18 26 24 21 23 24 26 27 27 27 26 26 26 24 21
17 19 21 22 23 23 21 20 19 19 18 16 15 14 11 11 11 10 11 10 9 8 9 9 8 8 8 8 9 10 10 10 11 11 11 11 12 12 12 13 13 13 13 13 13 14 14 14 14 14 15 16 15 15 15 15 14 14 16 16 16 16 15 13 16 17 13 11 9 9 15 19 19 22 26 25 27 28 25 24 23 23 24 25 25
19 20 22 23 23 23 22 22 21 18 16 15 14 12 11 12 12 10 10 10 9 8 9 9 8 8 9 9 8 9 9 10 10 11 12 12 12 13 13 13 14 14 14 14 14 14 13 14 14 14 14 15 15 14 15 15 15 14 15 15 15 14 13 11 13 15 12 10 10 10 13 17 17 21 25 26 27 26 24 24 23 24 26 27 28
Wind_Direction
123 132 130 127 120 120 121 116 115 116 116 115 115 115 119 121 119 123 125 121 111 107 108 107 102 95 92 93 92 90 88 85 83 84 84 85 88 92 94 96 98 99 100 100 98 95 91 89 86 82 78 75 70 66 65 68 73 81 86 85 85 93 104 102 93 89 96 96 92 90 84 81 79 75 77 78 79 83 87 80 67 67 69 67 67
126 132 130 128 125 124 123 119 119 120 118 117 118 118 122 125 126 127 125 117 113 113 112 108 102 97 97 96 94 92 90 88 86 86 86 87 90 93 95 98 99 100 101 100 99 95 92 90 87 82 77 73 67 62 61 63 69 84 91 92 92 96 103 102 91 85 90 93 94 94 88 84 82 79 82 85 88 91 91 80 71 75 74 69 69
125 130 131 130 129 127 124 122 121 122 121 121 122 122 126 129 129 127 124 119 117 116 111 107 102 99 99 96 95 95 93 92 91 89 89 91 91 93 97 98 98 99 99 99 98 94 91 91 86 78 71 66 62 60 59 60 65 79 90 95 93 90 97 103 98 95 94 88 86 87 85 86 83 78 83 91 97 96 84 72 71 72 70 70 71
122 130 132 130 129 130 125 124 123 124 124 125 126 125 129 130 129 126 123 121 118 115 112 108 104 102 101 99 98 97 96 95 93 93 93 92 92 94 96 95 98 99 99 100 97 92 89 86 81 71 64 62 59 58 57 55 59 72 83 87 92 96 104 107 103 103 101 91 82 75 72 82 85 78 79 82 86 87 78 72 70 68 64 60 63
123 131 130 128 130 131 127 127 126 125 126 125 126 125 126 127 126 123 123 122 119 116 114 110 107 107 106 104 101 99 98 97 95 95 93 94 97 98 98 96 99 100 99 101 98 95 89 82 76 66 61 60 58 56 55 52 53 67 85 93 100 107 109 108 108 108 107 100 85 76 67 70 76 75 76 76 71 69 72 73 70 67 63 52 47
124 127 127 130 132 134 130 129 128 125 125 122 121 121 122 123 123 123 125 124 121 117 115 113 112 111 109 107 104 103 100 98 98 98 96 98 100 100 100 98 99 97 98 101 99 95 87 79 73 65 59 57 55 54 54 51 53 76 97 104 105 107 108 104 105 106 109 112 91 85 77 69 72 75 75 73 70 68 65 67 75 69 63 54 42
123 125 129 133 135 137 133 130 130 126 124 121 120 119 120 122 124 125 126 126 124 121 120 119 117 114 110 110 107 105 102 99 99 100 101 102 103 103 101 99 97 95 98 99 94 88 83 77 73 67 59 53 50 52 54 54 67 95 107 109 105 102 100 95 93 92 90 81 83 94 93 80 79 81 78 74 75 74 59 53 73 73 69 66 50
124 127 130 136 138 138 135 132 130 127 123 119 118 118 119 122 124 126 126 128 128 126 124 121 118 115 113 112 110 106 104 101 99 101 102 104 106 105 102 100 98 99 101 99 93 89 87 80 73 65 59 51 43 50 57 62 85 106 110 107 102 98 92 87 82 75 67 52 69 108 113 93 87 89 84 81 82 79 62 52 64 75 80 72 56
128 126 132 138 138 138 135 133 130 126 121 118 117 116 117 120 122 125 129 131 130 129 126 122 119 118 117 114 111 108 105 103 101 101 103 105 107 107 104 101 101 102 102 98 92 91 91 80 70 62 56 49 42 51 58 70 98 110 109 108 103 100 94 86 73 59 61 63 79 104 108 100 94 93 91 92 87 85 82 68 56 54 72 61 51
127 128 134 136 137 139 136 133 128 124 122 120 119 119 120 121 124 128 131 132 130 130 127 123 121 121 119 115 111 109 107 106 105 104 104 105 106 107 105 103 101 101 98 93 86 84 88 77 66 55 48 49 47 54 61 75 105 117 113 113 108 103 94 74 62 60 65 82 106 106 100 109 110 93 94 103 99 94 93 70 37 45 63 56 51
122 127 130 134 138 139 136 132 127 126 125 125 125 124 125 126 128 131 132 132 132 131 128 125 124 123 120 116 113 112 110 108 107 105 104 104 104 104 103 105 100 98 98 91 81 77 86 81 64 51 53 60 60 62 67 77 108 126 124 119 111 100 84 61 59 69 84 102 120 118 104 124 118 69 72 98 107 104 89 57 40 56 65 56 52
119 127 133 136 137 137 133 129 128 128 128 129 130 129 129 129 131 133 133 134 134 132 129 126 125 123 119 118 116 114 111 107 108 106 105 104 101 98 94 91 86 88 91 85 77 75 87 87 65 55 66 72 71 71 70 76 109 131 132 127 116 100 82 64 63 63 89 105 113 122 126 140 61 37 62 89 89 73 72 68 52 62 68 61 56
121 133 138 135 135 136 131 128 130 131 131 133 132 131 131 131 134 135 135 136 135 133 131 129 125 124 121 119 115 112 109 106 105 105 106 106 102 97 88 81 81 83 82 79 74 77 92 92 71 65 77 81 77 74 70 75 108 134 136 133 128 112 82 55 55 53 83 110 115 132 188 217 12 15 62 86 82 67 69 74 63 66 73 70 64
125 133 134 132 137 135 130 130 132 134 135 135 135 135 133 135 137 136 137 136 136 134 132 128 125 124 121 117 112 109 106 104 103 102 101 101 98 90 81 74 73 73 76 78 76 83 98 98 78 72 82 85 81 77 70 71 104 140 143 143 142 122 74 39 41 56 115 125 119 164 233 268 2 354 39 93 86 68 75 76 65 68 73 74 73
131 132 132 135 137 134 133 133 133 137 138 139 140 138 137 140 140 139 138 137 136 134 131 128 126 122 118 113 108 105 101 99 97 96 93 88 85 76 70 63 58 59 70 86 89 94 106 107 86 76 82 85 86 81 74 70 96 139 147 148 144 115 49 37 56 69 122 126 121 194 225 312 354 350 347 133 98 68 77 72 72 78 71 68 74
135 135 136 137 136 136 134 135 138 140 140 141 142 140 141 143 142 142 140 139 137 134 133 129 127 122 117 111 105 99 94 91 86 85 84 83 81 74 67 59 56 55 62 111 131 116 119 122 98 79 77 81 90 86 82 76 92 134 149 146 131 91 47 37 69 63 102 137 137 206 229 299 339 349 330 240 123 105 104 74 82 88 67 49 67
138 138 139 140 138 138 136 138 142 139 138 139 142 143 144 143 143 144 142 141 138 137 134 130 127 120 113 105 97 91 87 79 72 71 74 81 80 76 70 61 59 57 63 101 147 144 137 136 116 90 76 76 90 94 94 85 93 125 145 137 108 84 68 44 53 42 34 144 149 210 241 301 321 331 320 278 182 156 144 113 77 71 82 42 51
141 142 142 142 139 139 138 138 138 137 138 140 144 146 145 144 142 143 145 142 139 138 135 132 125 116 107 98 91 88 85 74 69 61 62 70 65 63 60 56 53 54 58 83 141 157 154 150 136 109 83 73 88 104 106 97 99 113 129 126 108 97 73 40 46 47 110 138 201 228 264 298 311 316 307 276 203 181 191 183 242 292 217 53 30
145 147 145 143 140 140 139 138 137 136 137 139 145 147 146 144 142 145 145 143 141 140 137 132 122 114 104 97 94 93 83 69 68 56 59 60 44 44 40 43 43 46 51 59 122 162 167 166 156 134 102 83 94 120 127 113 110 115 122 119 113 93 47 30 21 336 139 134 226 251 283 298 307 308 296 265 178 200 244 246 247 275 277 33 354
146 149 148 143 142 143 142 140 139 138 137 139 143 147 150 146 144 148 146 144 143 140 136 129 122 114 102 99 93 90 70 60 63 48 62 57 35 37 32 31 34 44 51 46 42 157 181 180 175 163 132 110 108 142 155 143 130 128 125 113 105 50 32 27 4 335 158 191 245 258 272 301 312 302 284 263 215 237 249 272 269 271 276 301 326
147 148 146 142 143 146 145 142 141 140 141 141 143 149 153 151 149 151 147 144 143 143 139 128 125 118 105 97 82 81 57 49 45 27 62 45 24 24 26 26 29 42 51 48 40 27 230 199 189 186 175 154 160 197 195 192 175 157 158 164 168 16 26 27 356 321 287 239 242 248 259 299 318 307 280 265 271 252 249 273 280 289 276 275 302
145 142 143 144 145 148 146 144 143 141 142 143 149 154 151 153 155 153 148 147 151 148 143 134 130 120 99 83 72 80 84 56 42 51 103 18 16 18 22 29 27 34 41 43 41 34 16 233 211 204 197 207 244 246 256 249 235 215 210 217 253 326 4 7 318 295 300 257 228 239 261 296 309 312 291 270 290 277 268 280 288 296 285 272 282
143 140 143 147 147 149 147 145 144 141 141 142 147 148 146 154 157 154 153 156 160 151 146 146 137 120 99 89 91 100 142 137 117 119 146 337 19 39 47 45 38 36 29 22 29 33 28 0 228 227 216 230 247 237 263 274 270 262 260 259 280 322 342 317 289 291 300 266 247 261 269 289 299 307 301 284 293 292 269 273 285 290 287 279 282
142 141 142 147 148 148 147 145 144 142 140 140 142 142 147 159 156 157 162 160 163 155 152 151 143 145 145 142 132 129 156 172 171 145 176 262 21 42 35 22 27 23 10 4 3 14 18 20 212 242 235 238 253 242 238 255 264 269 285 290 295 310 302 286 282 287 291 280 274 272 268 283 294 298 301 289 285 289 271 267 284 290 291 277 273
142 141 142 146 146 145 147 145 148 147 142 145 147 147 156 163 159 162 164 159 160 156 159 157 155 164 164 156 147 155 170 170 163 152 191 213 195 314 330 306 308 324 315 323 323 324 339 329 24 0 265 249 255 258 248 246 251 265 285 290 295 297 280 277 280 281 286 286 278 273 272 281 289 291 293 288 280 284 277 271 275 279 288 277 274
140 140 141 143 144 144 146 146 153 154 148 151 152 156 165 164 162 166 167 170 168 160 164 163 167 174 167 159 150 160 169 168 171 154 192 204 180 229 254 266 259 264 270 295 303 290 299 291 269 310 312 287 269 265 259 255 255 267 280 274 272 278 271 271 282 286 288 286 282 282 280 281 284 287 287 285 281 277 273 272 265 266 279 275 277
140 138 138 140 143 144 148 151 154 155 156 155 152 162 170 161 161 168 170 172 169 162 163 160 175 184 169 153 142 154 159 158 213 165 178 201 132 227 230 237 247 246 244 259 261 247 279 289 268 274 292 285 276 271 261 262 263 271 281 279 280 284 282 283 287 293 294 289 286 286 287 284 281 282 282 282 281 277 274 270 261 264 272 273 280
136 135 136 139 144 146 153 156 153 158 158 151 154 166 167 159 164 169 166 163 163 162 158 161 177 177 156 146 143 158 147 138 230 305 189 223 352 264 252 249 265 266 243 242 197 227 288 302 283 275 286 279 272 272 266 265 263 270 278 279 284 285 287 291 286 289 297 296 294 292 290 284 279 278 278 279 281 280 276 270 265 263 263 271 280
133 134 135 139 145 149 156 157 157 161 155 154 162 162 158 163 167 165 161 159 164 161 156 165 175 165 152 151 148 147 133 133 172 262 254 248 216 282 305 286 288 306 273 300 354 338 321 308 291 281 292 294 289 285 284 282 268 266 272 270 276 279 280 285 280 280 286 287 296 305 299 285 281 281 278 278 281 282 278 274 267 254 257 271 277
132 131 133 137 144 151 157 158 158 158 158 164 163 155 157 163 163 163 160 158 163 160 153 156 161 166 159 150 147 146 139 135 145 206 255 275 234 249 299 255 286 351 332 348 18 340 324 307 291 286 292 297 300 297 297 303 289 277 281 274 275 284 285 282 276 276 280 283 290 296 296 290 286 283 279 280 282 284 284 279 269 255 255 265 270
132 131 133 137 150 156 157 159 158 158 166 169 157 156 159 160 163 165 162 159 156 152 152 152 153 168 173 151 143 149 183 150 146 209 205 222 237 311 8 123 52 4 318 349 27 296 286 287 291 291 290 287 295 297 290 296 295 290 295 290 290 298 295 286 281 279 279 286 289 280 278 282 284 282 280 281 280 280 283 278 270 262 251 249 259
132 134 135 140 154 156 154 157 158 164 171 165 157 158 159 162 162 160 162 160 155 153 157 158 148 150 161 147 137 147 177 147 155 187 170 185 180 135 162 128 88 228 265 339 286 280 279 284 295 294 288 284 287 292 292 293 291 290 294 296 298 301 296 291 290 291 287 287 293 288 281 283 284 282 281 279 274 272 278 272 264 262 252 247 251
131 131 133 141 149 147 149 152 156 170 170 160 159 159 165 169 161 157 164 158 154 152 149 152 145 143 148 137 132 131 98 77 106 132 129 139 131 129 175 154 124 176 244 37 287 294 309 301 299 301 299 299 296 295 300 298 292 290 292 294 297 298 297 295 292 295 296 291 295 293 287 289 287 284 280 276 271 270 275 273 266 264 258 253 249
124 129 136 144 140 132 133 131 133 131 117 123 128 155 175 175 159 154 156 148 149 152 148 148 140 137 133 125 127 110 86 68 80 111 102 88 94 71 57 84 88 58 37 48 344 314 316 310 313 315 311 312 310 308 309 305 301 299 298 298 298 300 300 299 296 297 297 295 297 293 289 293 292 287 280 276 273 269 272 274 272 270 266 258 248
125 133 136 132 123 123 130 140 154 138 94 48 53 111 208 253 153 152 154 151 153 155 149 142 134 130 120 116 118 99 83 72 69 86 81 69 71 63 43 33 37 35 36 37 4 357 356 339 338 332 323 324 321 316 314 312 311 306 303 301 299 299 299 299 299 299 297 295 296 294 295 297 296 292 281 274 273 272 273 273 273 274 271 265 252
125 124 116 112 123 140 152 157 164 164 164 138 94 116 175 343 344 321 166 164 163 155 144 136 133 123 108 96 91 85 76 71 65 70 81 76 62 62 50 27 19 15 16 23 18 11 2 351 348 340 331 329 324 320 320 318 315 310 307 305 301 299 298 298 297 296 295 295 297 296 295 293 292 292 287 280 278 280 281 278 277 273 268 267 259
117 114 119 130 141 146 146 139 143 147 128 112 107 118 120 108 115 73 235 224 196 148 133 126 117 102 92 84 79 79 67 64 63 59 64 65 60 48 36 33 28 23 24 25 23 17 8 358 353 347 339 332 326 324 325 324 320 314 310 306 303 300 297 295 293 292 293 293 295 295 292 290 289 289 289 290 288 287 286 284 282 277 268 266 262
124 128 132 136 138 135 137 135 135 131 106 95 101 116 115 101 119 122 121 297 320 98 112 108 99 90 87 78 70 69 61 56 54 53 52 50 53 43 35 39 34 31 35 30 22 17 12 3 356 350 345 339 333 330 328 327 324 319 313 307 302 299 296 293 290 288 289 290 291 293 294 293 291 286 287 292 292 288 286 285 283 279 273 270 267
137 134 123 118 126 133 137 135 130 120 108 109 103 110 127 117 114 98 69 5 2 81 99 95 88 83 82 76 68 65 58 53 51 51 53 50 47 43 40 37 32 31 31 31 24 15 10 5 -0 355 349 346 342 337 335 334 329 320 313 310 306 302 298 291 287 284 284 287 289 291 293 295 292 286 287 290 290 289 289 289 286 282 280 277 274
137 127 118 120 130 133 122 114 122 114 108 122 108 103 122 122 113 89 45 289 120 91 90 85 81 77 74 68 64 60 53 49 47 48 50 49 44 42 42 37 36 35 30 30 26 18 18 14 7 3 357 353 352 349 349 344 333 324 320 320 314 305 300 291 282 280 279 283 287 287 290 296 294 288 291 292 290 293 293 289 288 286 285 284 279
130 125 125 125 130 130 114 103 117 111 110 125 112 105 119 114 108 95 57 268 105 87 83 78 75 73 68 63 60 56 52 47 42 43 48 47 43 41 40 37 36 37 33 31 27 22 23 19 10 5 3 360 355 355 359 356 346 339 333 325 318 315 311 298 278 272 282 288 290 290 292 294 291 289 295 293 292 296 292 288 289 288 287 286 282
126 125 127 125 124 124 119 113 117 115 116 121 103 100 113 105 103 103 97 80 80 81 78 76 75 73 68 63 61 58 52 46 39 36 40 43 44 41 38 34 32 33 32 30 25 21 22 20 10 2 0 360 355 354 360 1 355 347 335 322 324 329 326 331 353 330 316 307 298 294 292 289 288 293 298 294 292 293 293 293 292 290 290 287 282
124 123 121 120 122 122 119 114 115 114 112 111 106 108 112 105 102 103 99 80 73 82 81 79 79 76 70 62 58 55 47 42 37 32 33 39 42 41 37 34 31 29 28 24 19 20 22 18 12 7 2 357 354 352 357 4 359 346 336 326 334 329 326 15 1 339 331 326 321 318 310 300 295 299 303 298 293 291 292 293 292 291 289 286 284
124 124 124 125 128 128 120 111 107 104 102 107 115 117 109 101 97 95 98 100 93 96 93 84 77 70 64 56 51 49 46 43 40 37 36 38 39 38 36 33 31 31 30 24 18 20 20 14 12 13 7 359 351 347 353 6 4 355 350 332 321 324 333 4 341 328 329 336 338 340 335 331 327 320 316 308 301 296 290 290 293 293 286 280 280
128 130 135 135 133 127 116 110 106 105 107 110 116 118 109 104 103 99 107 132 120 104 92 79 72 66 57 53 55 53 49 45 40 37 36 36 34 31 32 32 33 34 33 28 24 22 19 14 13 12 10 3 351 345 352 3 3 8 17 358 329 337 337 340 330 319 325 331 332 337 339 340 342 340 336 329 320 311 302 299 302 299 289 279 277
132 135 136 133 128 120 114 114 112 113 115 117 121 120 113 113 116 119 150 159 115 89 85 79 75 75 64 55 60 54 47 43 38 34 32 33 30 25 30 36 38 35 32 35 33 27 24 20 18 16 14 8 358 352 356 360 1 10 15 8 352 342 325 328 328 312 322 326 329 336 338 339 343 344 341 336 332 329 328 325 317 307 295 281 276
127 133 130 124 120 116 113 114 113 114 112 112 116 111 107 113 120 131 175 154 107 87 87 86 83 82 72 57 49 42 42 42 38 36 34 36 35 35 41 46 47 39 36 42 38 33 31 27 24 23 20 17 14 9 3 2 2 3 5 4 357 349 341 338 339 328 322 325 332 335 337 340 340 339 337 336 335 336 335 331 325 318 308 291 282
120 125 121 117 116 113 110 111 113 112 104 99 94 88 89 97 110 118 121 113 103 96 95 91 87 85 77 65 49 38 45 49 45 42 42 44 44 44 47 50 52 47 44 45 41 38 36 32 30 27 27 27 23 20 14 9 5 360 360 1 359 358 355 352 353 354 340 324 329 333 336 336 335 337 339 338 337 336 331 328 328 325 317 303 290
113 114 114 115 112 107 104 106 107 102 96 95 91 87 89 100 114 118 113 108 106 104 101 91 86 87 81 72 63 53 56 57 53 49 46 47 48 46 46 49 52 49 46 44 43 42 37 35 33 29 31 32 29 27 22 16 9 4 1 358 359 1 359 359 1 -0 352 333 328 331 334 334 333 336 339 337 336 333 328 326 328 327 328 324 316
112 111 113 113 110 106 101 98 98 95 97 102 101 99 104 116 121 119 115 114 115 115 110 105 104 105 96 82 72 66 63 58 53 52 49 47 49 48 46 47 49 50 46 44 47 44 37 37 37 33 35 34 31 31 25 21 16 10 7 2 0 1 0 2 2 358 350 340 332 327 330 332 330 329 333 336 333 329 328 328 329 336 349 357 1
117 112 113 114 113 110 104 99 97 95 97 101 103 105 110 115 115 115 120 123 126 134 133 131 129 116 103 93 82 74 70 62 54 52 51 49 49 50 48 47 48 50 48 44 47 47 39 39 41 38 38 35 32 32 27 24 20 15 13 9 2 360 2 3 356 350 347 340 333 325 327 329 323 320 327 331 330 331 333 333 336 346 354 355 0